Time,TemperatureF,DewpointF,PressureIn,WindDirection,WindDirectionDegrees,WindSpeedMPH,WindSpeedGustMPH,Humidity,HourlyPrecipIn,Conditions,Clouds,dailyrainin,SoftwareType,DateUTC
2013-05-06 00:01:00,54.3,50.0,29.36,NNE,22,6.0,6.0,85,0.00,,,0.00,meteohub,2013-05-06 05:01:00,
2013-05-06 00:06:00,54.3,50.0,29.36,NE,45,7.0,8.0,85,0.00,,,0.00,meteohub,2013-05-06 05:06:00,
2013-05-06 00:11:00,54.3,50.0,29.36,NE,45,4.0,8.0,85,0.00,,,0.00,meteohub,2013-05-06 05:11:00,
2013-05-06 00:16:00,54.3,50.0,29.36,NNE,22,6.0,8.0,85,0.00,,,0.00,meteohub,2013-05-06 05:16:00,
2013-05-06 00:21:00,54.3,50.0,29.36,ENE,68,5.0,8.0,85,0.00,,,0.00,meteohub,2013-05-06 05:21:00,
2013-05-06 00:26:00,54.3,50.0,29.36,NE,45,4.0,6.0,85,0.00,,,0.00,meteohub,2013-05-06 05:26:00,
2013-05-06 00:31:00,54.3,50.0,29.36,NNE,22,7.0,8.0,85,0.00,,,0.00,meteohub,2013-05-06 05:31:00,
2013-05-06 00:36:00,54.3,49.6,29.36,East,90,4.0,8.0,84,0.00,,,0.00,meteohub,2013-05-06 05:36:00,
2013-05-06 00:42:00,54.3,49.6,29.36,ENE,68,4.0,8.0,84,0.00,,,0.00,meteohub,2013-05-06 05:42:00,
2013-05-06 00:47:00,54.3,50.0,29.36,NE,45,3.0,8.0,85,0.00,,,0.00,meteohub,2013-05-06 05:47:00,
2013-05-06 00:52:00,54.3,50.0,29.34,NE,45,7.0,7.0,85,0.00,,,0.00,meteohub,2013-05-06 05:52:00,
2013-05-06 00:57:00,54.3,50.0,29.34,NNE,22,4.0,7.0,85,0.00,,,0.00,meteohub,2013-05-06 05:57:00,
2013-05-06 01:02:00,54.3,50.0,29.34,NNE,22,4.0,7.0,85,0.00,,,0.00,meteohub,2013-05-06 06:02:00,
2013-05-06 01:07:00,54.1,50.0,29.34,NNE,22,11.0,11.0,86,0.00,,,0.00,meteohub,2013-05-06 06:07:00,
2013-05-06 01:12:00,54.0,49.8,29.34,NNE,22,6.0,11.0,86,0.00,,,0.00,meteohub,2013-05-06 06:12:00,
2013-05-06 01:17:00,54.0,49.6,29.34,NE,45,3.0,11.0,85,0.00,,,0.00,meteohub,2013-05-06 06:17:00,
2013-05-06 01:22:00,54.0,49.8,29.34,NNE,22,6.0,11.0,86,0.00,,,0.00,meteohub,2013-05-06 06:22:00,
2013-05-06 01:27:00,54.0,49.8,29.34,NE,45,4.0,10.0,86,0.00,,,0.00,meteohub,2013-05-06 06:27:00,
2013-05-06 01:32:00,54.0,50.2,29.34,NE,45,4.0,9.0,87,0.00,,,0.00,meteohub,2013-05-06 06:32:00,
2013-05-06 01:37:00,54.0,50.2,29.34,North,0,6.0,10.0,87,0.00,,,0.00,meteohub,2013-05-06 06:37:00,
2013-05-06 01:42:00,53.8,50.0,29.34,NNE,22,4.0,11.0,87,0.00,,,0.00,meteohub,2013-05-06 06:42:00,
2013-05-06 01:47:00,53.8,50.0,29.34,North,0,7.0,11.0,87,0.00,,,0.00,meteohub,2013-05-06 06:47:00,
2013-05-06 01:52:00,53.8,50.4,29.34,NNE,22,4.0,11.0,88,0.00,,,0.00,meteohub,2013-05-06 06:52:00,
2013-05-06 01:57:00,53.8,50.4,29.34,NE,45,6.0,8.0,88,0.00,,,0.00,meteohub,2013-05-06 06:57:00,
2013-05-06 02:02:00,53.8,50.4,29.34,NNE,22,5.0,8.0,88,0.00,,,0.00,meteohub,2013-05-06 07:02:00,
2013-05-06 02:07:00,54.0,50.7,29.34,NNE,22,9.0,9.0,89,0.00,,,0.00,meteohub,2013-05-06 07:07:00,
2013-05-06 02:12:00,54.0,50.7,29.34,NE,45,6.0,9.0,89,0.00,,,0.00,meteohub,2013-05-06 07:12:00,
2013-05-06 02:18:00,54.0,50.7,29.34,NNE,22,8.0,9.0,89,0.00,,,0.00,meteohub,2013-05-06 07:18:00,
2013-05-06 02:23:00,54.0,50.7,29.34,NE,45,8.0,11.0,89,0.00,,,0.00,meteohub,2013-05-06 07:23:00,
2013-05-06 02:28:00,54.0,50.7,29.34,NNE,22,5.0,11.0,89,0.00,,,0.00,meteohub,2013-05-06 07:28:00,
2013-05-06 02:33:00,54.0,50.7,29.34,NE,45,8.0,11.0,89,0.00,,,0.00,meteohub,2013-05-06 07:33:00,
2013-05-06 02:38:00,54.0,50.7,29.34,North,0,4.0,9.0,89,0.00,,,0.00,meteohub,2013-05-06 07:38:00,
2013-05-06 02:43:00,54.0,50.7,29.34,NNE,22,9.0,9.0,89,0.00,,,0.00,meteohub,2013-05-06 07:43:00,
2013-05-06 02:48:00,54.0,50.7,29.34,North,0,4.0,9.0,89,0.00,,,0.00,meteohub,2013-05-06 07:48:00,
2013-05-06 02:53:00,54.0,51.1,29.34,NNE,22,6.0,9.0,90,0.00,,,0.00,meteohub,2013-05-06 07:53:00,
2013-05-06 02:58:00,54.0,51.1,29.34,NNE,22,8.0,10.0,90,0.00,,,0.00,meteohub,2013-05-06 07:58:00,
2013-05-06 03:03:00,54.0,51.1,29.34,NNE,22,5.0,10.0,90,0.00,,,0.00,meteohub,2013-05-06 08:03:00,
2013-05-06 03:08:00,54.0,51.1,29.34,NNE,22,5.0,11.0,90,0.00,,,0.00,meteohub,2013-05-06 08:08:00,
2013-05-06 03:14:00,54.1,51.3,29.34,ENE,68,5.0,11.0,90,0.00,,,0.00,meteohub,2013-05-06 08:14:00,
2013-05-06 03:19:00,54.1,51.3,29.34,North,0,4.0,8.0,90,0.00,,,0.00,meteohub,2013-05-06 08:19:00,
2013-05-06 03:24:00,54.1,51.3,29.34,NNE,22,5.0,8.0,90,0.00,,,0.00,meteohub,2013-05-06 08:24:00,
2013-05-06 03:29:00,54.1,51.3,29.34,NE,45,5.0,8.0,90,0.00,,,0.00,meteohub,2013-05-06 08:29:00,
2013-05-06 03:34:00,54.1,51.3,29.34,NE,45,9.0,9.0,90,0.00,,,0.00,meteohub,2013-05-06 08:34:00,
2013-05-06 03:39:00,54.1,51.3,29.34,NE,45,6.0,10.0,90,0.00,,,0.00,meteohub,2013-05-06 08:39:00,
2013-05-06 03:44:00,54.1,51.6,29.34,NNE,22,6.0,10.0,91,0.00,,,0.00,meteohub,2013-05-06 08:44:00,
2013-05-06 03:49:00,54.3,51.8,29.34,NNE,22,7.0,10.0,91,0.00,,,0.00,meteohub,2013-05-06 08:49:00,
2013-05-06 03:54:00,54.3,51.8,29.34,NNE,22,5.0,9.0,91,0.00,,,0.00,meteohub,2013-05-06 08:54:00,
2013-05-06 03:59:00,54.3,51.8,29.34,North,0,6.0,9.0,91,0.00,,,0.00,meteohub,2013-05-06 08:59:00,
2013-05-06 04:04:00,54.3,51.8,29.31,NNE,22,6.0,10.0,91,0.00,,,0.00,meteohub,2013-05-06 09:04:00,
2013-05-06 04:09:00,54.3,52.0,29.31,NE,45,6.0,10.0,92,0.00,,,0.00,meteohub,2013-05-06 09:09:00,
2013-05-06 04:14:00,54.1,51.8,29.31,NNE,22,5.0,10.0,92,0.00,,,0.00,meteohub,2013-05-06 09:14:00,
2013-05-06 04:19:00,54.1,52.2,29.31,NE,45,6.0,10.0,93,0.00,,,0.00,meteohub,2013-05-06 09:19:00,
2013-05-06 04:25:00,54.1,52.2,29.31,NNE,22,6.0,11.0,93,0.00,,,0.00,meteohub,2013-05-06 09:25:00,
2013-05-06 04:30:00,54.0,52.0,29.31,NNE,22,7.0,11.0,93,0.00,,,0.00,meteohub,2013-05-06 09:30:00,
2013-05-06 04:35:00,54.0,52.3,29.34,NNW,338,8.0,11.0,94,0.00,,,0.00,meteohub,2013-05-06 09:35:00,
2013-05-06 04:40:00,54.0,52.3,29.34,NE,45,3.0,10.0,94,0.00,,,0.00,meteohub,2013-05-06 09:40:00,
2013-05-06 04:45:00,53.8,52.2,29.34,NNE,22,6.0,10.0,94,0.00,,,0.00,meteohub,2013-05-06 09:45:00,
2013-05-06 04:50:00,53.8,52.3,29.34,NNE,22,4.0,8.0,95,0.00,,,0.00,meteohub,2013-05-06 09:50:00,
2013-05-06 04:55:00,53.8,52.3,29.34,NNE,22,6.0,8.0,95,0.00,,,0.00,meteohub,2013-05-06 09:55:00,
2013-05-06 05:00:00,53.8,52.3,29.34,NE,45,4.0,8.0,95,0.00,,,0.00,meteohub,2013-05-06 10:00:00,
2013-05-06 05:05:00,53.8,52.3,29.34,NNE,22,9.0,9.0,95,0.00,,,0.00,meteohub,2013-05-06 10:05:00,
2013-05-06 05:10:00,53.8,52.7,29.34,NNE,22,7.0,10.0,96,0.00,,,0.00,meteohub,2013-05-06 10:10:00,
2013-05-06 05:15:00,53.8,52.7,29.34,NNE,22,6.0,12.0,96,0.00,,,0.00,meteohub,2013-05-06 10:15:00,
2013-05-06 05:20:00,54.0,53.1,29.34,NE,45,4.0,12.0,97,0.00,,,0.00,meteohub,2013-05-06 10:20:00,
2013-05-06 05:25:00,53.8,52.9,29.34,NNE,22,8.0,12.0,97,0.00,,,0.00,meteohub,2013-05-06 10:25:00,
2013-05-06 05:31:00,53.8,52.9,29.34,NNE,22,6.0,12.0,97,0.04,,,0.04,meteohub,2013-05-06 10:31:00,
2013-05-06 05:36:00,53.8,52.9,29.34,NNE,22,4.0,12.0,97,0.04,,,0.04,meteohub,2013-05-06 10:36:00,
2013-05-06 05:41:00,53.8,52.9,29.34,NNE,22,3.0,12.0,97,0.04,,,0.04,meteohub,2013-05-06 10:41:00,
2013-05-06 05:46:00,53.8,52.9,29.34,NNE,22,5.0,8.0,97,0.04,,,0.04,meteohub,2013-05-06 10:46:00,
2013-05-06 05:51:00,53.6,52.7,29.34,NNE,22,4.0,7.0,97,0.04,,,0.04,meteohub,2013-05-06 10:51:00,
2013-05-06 05:56:00,53.8,52.9,29.34,NNW,338,6.0,7.0,97,0.04,,,0.04,meteohub,2013-05-06 10:56:00,
2013-05-06 06:01:00,53.8,53.2,29.34,NNE,22,6.0,7.0,98,0.04,,,0.04,meteohub,2013-05-06 11:01:00,
2013-05-06 06:06:00,53.8,53.2,29.36,NE,45,6.0,9.0,98,0.04,,,0.04,meteohub,2013-05-06 11:06:00,
2013-05-06 06:11:00,53.8,53.2,29.36,NE,45,5.0,9.0,98,0.04,,,0.04,meteohub,2013-05-06 11:11:00,
2013-05-06 06:16:00,54.0,53.4,29.36,NE,45,4.0,9.0,98,0.04,,,0.04,meteohub,2013-05-06 11:16:00,
2013-05-06 06:21:00,54.0,53.4,29.36,NNE,22,5.0,9.0,98,0.04,,,0.04,meteohub,2013-05-06 11:21:00,
2013-05-06 06:26:00,54.0,53.4,29.36,NNE,22,6.0,11.0,98,0.04,,,0.04,meteohub,2013-05-06 11:26:00,
2013-05-06 06:31:00,54.0,53.4,29.36,NNE,22,10.0,11.0,98,0.00,,,0.04,meteohub,2013-05-06 11:31:00,
2013-05-06 06:37:00,54.0,53.4,29.36,NE,45,6.0,11.0,98,0.00,,,0.04,meteohub,2013-05-06 11:37:00,
2013-05-06 06:42:00,54.0,53.4,29.36,NE,45,5.0,10.0,98,0.00,,,0.04,meteohub,2013-05-06 11:42:00,
2013-05-06 06:47:00,54.0,53.4,29.36,NNW,338,6.0,13.0,98,0.00,,,0.04,meteohub,2013-05-06 11:47:00,
2013-05-06 06:52:00,54.0,53.4,29.36,NE,45,7.0,13.0,98,0.00,,,0.04,meteohub,2013-05-06 11:52:00,
2013-05-06 06:57:00,54.0,53.4,29.36,NNE,22,6.0,11.0,98,0.00,,,0.04,meteohub,2013-05-06 11:57:00,
2013-05-06 07:02:00,54.1,53.6,29.36,NNE,22,7.0,11.0,98,0.00,,,0.04,meteohub,2013-05-06 12:02:00,
2013-05-06 07:07:00,54.1,53.6,29.36,NNE,22,5.0,11.0,98,0.00,,,0.04,meteohub,2013-05-06 12:07:00,
2013-05-06 07:12:00,54.3,53.8,29.36,NNE,22,6.0,10.0,98,0.00,,,0.04,meteohub,2013-05-06 12:12:00,
2013-05-06 07:17:00,54.3,53.8,29.36,ENE,68,6.0,9.0,98,0.00,,,0.04,meteohub,2013-05-06 12:17:00,
2013-05-06 07:22:00,54.5,54.0,29.36,NNE,22,6.0,9.0,98,0.00,,,0.04,meteohub,2013-05-06 12:22:00,
2013-05-06 07:27:00,54.5,54.0,29.36,NNE,22,6.0,7.0,98,0.00,,,0.04,meteohub,2013-05-06 12:27:00,
2013-05-06 07:32:00,54.7,54.1,29.36,NE,45,6.0,8.0,98,0.00,,,0.04,meteohub,2013-05-06 12:32:00,
2013-05-06 07:37:00,54.7,54.1,29.36,NNE,22,4.0,8.0,98,0.00,,,0.04,meteohub,2013-05-06 12:37:00,
2013-05-06 07:42:00,54.7,54.1,29.36,NNE,22,6.0,8.0,98,0.00,,,0.04,meteohub,2013-05-06 12:42:00,
2013-05-06 07:47:00,54.9,54.3,29.36,North,0,4.0,6.0,98,0.00,,,0.04,meteohub,2013-05-06 12:47:00,
2013-05-06 07:52:00,54.9,54.3,29.39,North,0,5.0,8.0,98,0.00,,,0.04,meteohub,2013-05-06 12:52:00,
2013-05-06 07:57:00,55.0,54.1,29.39,North,0,5.0,8.0,97,0.00,,,0.04,meteohub,2013-05-06 12:57:00,
2013-05-06 08:02:00,55.2,54.3,29.39,North,0,4.0,8.0,97,0.00,,,0.04,meteohub,2013-05-06 13:02:00,
2013-05-06 08:07:00,55.2,54.3,29.39,North,0,6.0,6.0,97,0.00,,,0.04,meteohub,2013-05-06 13:07:00,
2013-05-06 08:12:00,55.2,54.3,29.39,NNW,338,5.0,9.0,97,0.00,,,0.04,meteohub,2013-05-06 13:12:00,
2013-05-06 08:17:00,55.4,54.3,29.39,NNE,22,6.0,9.0,96,0.00,,,0.04,meteohub,2013-05-06 13:17:00,
2013-05-06 08:22:00,55.4,54.0,29.39,NNE,22,5.0,9.0,95,0.00,,,0.04,meteohub,2013-05-06 13:22:00,
2013-05-06 08:27:00,55.4,54.0,29.39,NNW,338,6.0,7.0,95,0.00,,,0.04,meteohub,2013-05-06 13:27:00,
2013-05-06 08:32:00,55.8,54.1,29.39,NE,45,4.0,7.0,94,0.00,,,0.04,meteohub,2013-05-06 13:32:00,
2013-05-06 08:37:00,55.6,54.0,29.39,North,0,6.0,8.0,94,0.00,,,0.04,meteohub,2013-05-06 13:37:00,
2013-05-06 08:42:00,55.6,53.6,29.39,NNE,22,7.0,8.0,93,0.00,,,0.04,meteohub,2013-05-06 13:42:00,
2013-05-06 08:47:00,55.9,54.0,29.39,NNE,22,9.0,9.0,93,0.00,,,0.04,meteohub,2013-05-06 13:47:00,
2013-05-06 08:52:00,55.9,53.6,29.39,North,0,3.0,9.0,92,0.00,,,0.04,meteohub,2013-05-06 13:52:00,
2013-05-06 08:57:00,56.1,53.8,29.39,North,0,6.0,9.0,92,0.00,,,0.04,meteohub,2013-05-06 13:57:00,
2013-05-06 09:02:00,56.1,53.8,29.39,North,0,8.0,9.0,92,0.00,,,0.04,meteohub,2013-05-06 14:02:00,
2013-05-06 09:07:00,56.5,54.1,29.39,NNE,22,4.0,8.0,92,0.00,,,0.04,meteohub,2013-05-06 14:07:00,
2013-05-06 09:12:00,56.7,54.1,29.39,NNE,22,6.0,8.0,91,0.00,,,0.04,meteohub,2013-05-06 14:12:00,
2013-05-06 09:17:00,56.8,53.6,29.39,North,0,10.0,10.0,89,0.00,,,0.04,meteohub,2013-05-06 14:17:00,
2013-05-06 09:22:00,57.2,53.6,29.39,NNE,22,6.0,13.0,88,0.00,,,0.04,meteohub,2013-05-06 14:22:00,
2013-05-06 09:27:00,57.6,53.8,29.39,NNW,338,8.0,13.0,87,0.00,,,0.04,meteohub,2013-05-06 14:27:00,
2013-05-06 09:32:00,57.7,53.6,29.39,ENE,68,12.0,13.0,86,0.00,,,0.04,meteohub,2013-05-06 14:32:00,
2013-05-06 09:37:00,57.9,53.1,29.39,NE,45,10.0,12.0,84,0.00,,,0.04,meteohub,2013-05-06 14:37:00,
2013-05-06 09:42:00,57.9,52.5,29.39,NNE,22,6.0,12.0,82,0.00,,,0.04,meteohub,2013-05-06 14:42:00,
2013-05-06 09:47:00,58.5,53.1,29.39,NNE,22,6.0,13.0,82,0.00,,,0.04,meteohub,2013-05-06 14:47:00,
2013-05-06 09:52:00,59.0,53.8,29.39,NE,45,6.0,13.0,83,0.00,,,0.04,meteohub,2013-05-06 14:52:00,
2013-05-06 09:57:00,58.8,52.3,29.39,NE,45,9.0,13.0,79,0.00,,,0.04,meteohub,2013-05-06 14:57:00,
2013-05-06 10:02:00,58.8,52.7,29.39,NNE,22,10.0,12.0,80,0.00,,,0.04,meteohub,2013-05-06 15:02:00,
2013-05-06 10:07:00,58.8,52.7,29.36,NE,45,4.0,13.0,80,0.00,,,0.04,meteohub,2013-05-06 15:07:00,
2013-05-06 10:12:00,58.8,52.7,29.36,NNE,22,6.0,13.0,80,0.00,,,0.04,meteohub,2013-05-06 15:12:00,
2013-05-06 10:17:00,59.5,53.8,29.36,North,0,4.0,13.0,81,0.00,,,0.04,meteohub,2013-05-06 15:17:00,
2013-05-06 10:22:00,59.4,52.9,29.39,North,0,7.0,13.0,79,0.00,,,0.04,meteohub,2013-05-06 15:22:00,
2013-05-06 10:27:00,59.4,52.5,29.39,NE,45,9.0,12.0,78,0.00,,,0.04,meteohub,2013-05-06 15:27:00,
2013-05-06 10:32:00,59.4,52.9,29.39,NE,45,7.0,12.0,79,0.00,,,0.04,meteohub,2013-05-06 15:32:00,
2013-05-06 10:37:00,59.4,52.5,29.39,NNE,22,7.0,11.0,78,0.00,,,0.04,meteohub,2013-05-06 15:37:00,
2013-05-06 10:42:00,60.1,53.2,29.39,NE,45,6.0,13.0,78,0.00,,,0.04,meteohub,2013-05-06 15:42:00,
2013-05-06 10:47:00,60.3,53.1,29.39,NE,45,9.0,13.0,77,0.00,,,0.04,meteohub,2013-05-06 15:47:00,
2013-05-06 10:52:00,60.3,53.4,29.39,NNE,22,6.0,13.0,78,0.00,,,0.04,meteohub,2013-05-06 15:52:00,
2013-05-06 10:57:00,60.4,52.9,29.39,NNE,22,8.0,12.0,76,0.00,,,0.04,meteohub,2013-05-06 15:57:00,
2013-05-06 11:02:00,60.3,52.3,29.39,NE,45,9.0,13.0,75,0.00,,,0.04,meteohub,2013-05-06 16:02:00,
2013-05-06 11:07:00,60.6,53.1,29.39,NNE,22,6.0,13.0,76,0.00,,,0.04,meteohub,2013-05-06 16:07:00,
2013-05-06 11:12:00,61.7,54.5,29.39,NNE,22,8.0,13.0,77,0.00,,,0.04,meteohub,2013-05-06 16:12:00,
2013-05-06 11:17:00,61.2,52.5,29.39,NW,315,7.0,13.0,73,0.00,,,0.04,meteohub,2013-05-06 16:17:00,
2013-05-06 11:22:00,61.2,52.5,29.39,North,0,5.0,11.0,73,0.00,,,0.04,meteohub,2013-05-06 16:22:00,
2013-05-06 11:27:00,61.9,53.6,29.39,NE,45,5.0,11.0,74,0.00,,,0.04,meteohub,2013-05-06 16:27:00,
2013-05-06 11:32:00,62.1,53.2,29.39,NE,45,8.0,11.0,73,0.00,,,0.04,meteohub,2013-05-06 16:32:00,
2013-05-06 11:37:00,62.4,53.2,29.39,NNE,22,10.0,11.0,72,0.00,,,0.04,meteohub,2013-05-06 16:37:00,
2013-05-06 11:42:00,62.4,52.9,29.39,ENE,68,6.0,15.0,71,0.00,,,0.04,meteohub,2013-05-06 16:42:00,
2013-05-06 11:47:00,62.6,53.1,29.39,East,90,5.0,15.0,71,0.00,,,0.04,meteohub,2013-05-06 16:47:00,
2013-05-06 11:52:00,61.5,51.6,29.39,NNE,22,7.0,15.0,70,0.00,,,0.04,meteohub,2013-05-06 16:52:00,
2013-05-06 11:57:00,61.9,52.3,29.39,NE,45,9.0,14.0,71,0.00,,,0.04,meteohub,2013-05-06 16:57:00,
2013-05-06 12:02:00,62.2,52.7,29.39,NNE,22,9.0,14.0,71,0.00,,,0.04,meteohub,2013-05-06 17:02:00,
2013-05-06 12:07:00,63.3,52.5,29.39,NE,45,8.0,13.0,68,0.00,,,0.04,meteohub,2013-05-06 17:07:00,
2013-05-06 12:12:00,64.2,53.8,29.39,North,0,10.0,13.0,69,0.00,,,0.04,meteohub,2013-05-06 17:12:00,
2013-05-06 12:17:00,64.9,54.1,29.39,North,0,9.0,13.0,68,0.00,,,0.04,meteohub,2013-05-06 17:17:00,
2013-05-06 12:22:00,63.9,52.3,29.36,North,0,9.0,13.0,66,0.00,,,0.04,meteohub,2013-05-06 17:22:00,
2013-05-06 12:27:00,63.9,52.3,29.36,NNE,22,8.0,13.0,66,0.00,,,0.04,meteohub,2013-05-06 17:27:00,
2013-05-06 12:32:00,64.0,52.5,29.36,NNE,22,8.0,13.0,66,0.00,,,0.04,meteohub,2013-05-06 17:32:00,
2013-05-06 12:37:00,64.8,52.7,29.39,NNE,22,9.0,11.0,65,0.00,,,0.04,meteohub,2013-05-06 17:37:00,
2013-05-06 12:42:00,64.9,52.9,29.39,East,90,10.0,11.0,65,0.00,,,0.04,meteohub,2013-05-06 17:42:00,
2013-05-06 12:47:00,64.4,51.6,29.39,NNE,22,10.0,13.0,63,0.00,,,0.04,meteohub,2013-05-06 17:47:00,
2013-05-06 12:52:00,64.9,52.9,29.39,NNE,22,11.0,13.0,65,0.00,,,0.04,meteohub,2013-05-06 17:52:00,
2013-05-06 12:57:00,65.3,52.9,29.39,NNE,22,15.0,15.0,64,0.00,,,0.04,meteohub,2013-05-06 17:57:00,
2013-05-06 13:02:00,65.7,52.7,29.39,South,180,6.0,15.0,63,0.00,,,0.04,meteohub,2013-05-06 18:02:00,
2013-05-06 13:07:00,65.5,52.5,29.36,NNE,22,8.0,15.0,63,0.00,,,0.04,meteohub,2013-05-06 18:07:00,
2013-05-06 13:12:00,65.3,52.0,29.36,NNE,22,10.0,15.0,62,0.00,,,0.04,meteohub,2013-05-06 18:12:00,
2013-05-06 13:17:00,64.8,51.4,29.36,NE,45,11.0,11.0,62,0.00,,,0.04,meteohub,2013-05-06 18:17:00,
2013-05-06 13:22:00,64.4,51.1,29.36,ENE,68,5.0,12.0,62,0.00,,,0.04,meteohub,2013-05-06 18:22:00,
2013-05-06 13:27:00,64.0,50.7,29.36,NNE,22,10.0,12.0,62,0.00,,,0.04,meteohub,2013-05-06 18:27:00,
2013-05-06 13:32:00,64.8,51.4,29.36,North,0,9.0,13.0,62,0.00,,,0.04,meteohub,2013-05-06 18:32:00,
2013-05-06 13:37:00,64.6,51.3,29.39,ENE,68,9.0,13.0,62,0.00,,,0.04,meteohub,2013-05-06 18:37:00,
2013-05-06 13:42:00,64.2,51.4,29.39,NE,45,6.0,13.0,63,0.00,,,0.04,meteohub,2013-05-06 18:42:00,
2013-05-06 13:47:00,63.7,51.3,29.39,North,0,9.0,11.0,64,0.00,,,0.04,meteohub,2013-05-06 18:47:00,
2013-05-06 13:52:00,63.5,51.1,29.39,NE,45,9.0,10.0,64,0.00,,,0.04,meteohub,2013-05-06 18:52:00,
2013-05-06 13:57:00,63.7,51.6,29.39,NE,45,8.0,11.0,65,0.00,,,0.04,meteohub,2013-05-06 18:57:00,
2013-05-06 14:02:00,63.5,51.6,29.39,East,90,6.0,12.0,65,0.00,,,0.04,meteohub,2013-05-06 19:02:00,
2013-05-06 14:07:00,63.5,52.0,29.39,NE,45,8.0,12.0,66,0.00,,,0.04,meteohub,2013-05-06 19:07:00,
2013-05-06 14:12:00,63.1,51.6,29.39,NNE,22,10.0,12.0,66,0.00,,,0.04,meteohub,2013-05-06 19:12:00,
2013-05-06 14:17:00,63.0,51.4,29.39,NE,45,8.0,13.0,66,0.00,,,0.04,meteohub,2013-05-06 19:17:00,
2013-05-06 14:22:00,62.8,51.6,29.39,NNE,22,6.0,13.0,67,0.00,,,0.04,meteohub,2013-05-06 19:22:00,
2013-05-06 14:27:00,62.6,51.4,29.39,NNE,22,8.0,13.0,67,0.00,,,0.04,meteohub,2013-05-06 19:27:00,
2013-05-06 14:32:00,62.8,52.2,29.39,NNE,22,7.0,11.0,68,0.00,,,0.04,meteohub,2013-05-06 19:32:00,
2013-05-06 14:37:00,63.0,52.2,29.39,NNE,22,7.0,11.0,68,0.00,,,0.04,meteohub,2013-05-06 19:37:00,
2013-05-06 14:42:00,63.1,52.0,29.39,NE,45,9.0,11.0,67,0.00,,,0.04,meteohub,2013-05-06 19:42:00,
2013-05-06 14:47:00,63.0,51.8,29.39,NE,45,6.0,10.0,67,0.00,,,0.04,meteohub,2013-05-06 19:47:00,
2013-05-06 14:52:00,63.3,52.2,29.39,NNE,22,6.0,10.0,67,0.00,,,0.04,meteohub,2013-05-06 19:52:00,
2013-05-06 14:57:00,63.3,52.2,29.39,NE,45,5.0,9.0,67,0.00,,,0.04,meteohub,2013-05-06 19:57:00,
2013-05-06 15:02:00,63.3,52.2,29.39,North,0,5.0,11.0,67,0.00,,,0.04,meteohub,2013-05-06 20:02:00,
2013-05-06 15:07:00,63.3,51.8,29.39,NNE,22,5.0,11.0,66,0.00,,,0.04,meteohub,2013-05-06 20:07:00,
2013-05-06 15:12:00,63.5,52.0,29.39,North,0,5.0,11.0,66,0.00,,,0.04,meteohub,2013-05-06 20:12:00,
2013-05-06 15:17:00,63.5,52.0,29.39,North,0,3.0,10.0,66,0.00,,,0.04,meteohub,2013-05-06 20:17:00,
2013-05-06 15:23:00,63.7,52.2,29.39,NNE,22,6.0,10.0,66,0.00,,,0.04,meteohub,2013-05-06 20:23:00,
2013-05-06 15:28:00,64.0,52.5,29.39,NNE,22,6.0,8.0,66,0.00,,,0.04,meteohub,2013-05-06 20:28:00,
2013-05-06 15:33:00,64.4,52.3,29.39,NNE,22,4.0,8.0,65,0.00,,,0.04,meteohub,2013-05-06 20:33:00,
2013-05-06 15:38:00,64.6,52.2,29.39,NE,45,3.0,8.0,64,0.00,,,0.04,meteohub,2013-05-06 20:38:00,
2013-05-06 15:43:00,64.8,52.3,29.39,NNW,338,4.0,9.0,64,0.00,,,0.04,meteohub,2013-05-06 20:43:00,
2013-05-06 15:48:00,64.6,52.2,29.39,NNE,22,4.0,9.0,64,0.00,,,0.04,meteohub,2013-05-06 20:48:00,
2013-05-06 15:53:00,64.2,51.8,29.36,NNE,22,6.0,11.0,64,0.00,,,0.04,meteohub,2013-05-06 20:53:00,
2013-05-06 15:58:00,64.2,51.8,29.36,NNE,22,5.0,11.0,64,0.00,,,0.04,meteohub,2013-05-06 20:58:00,
2013-05-06 16:03:00,64.4,53.2,29.36,NE,45,2.0,10.0,67,0.00,,,0.04,meteohub,2013-05-06 21:03:00,
2013-05-06 16:08:00,64.4,53.6,29.36,NNE,22,6.0,10.0,68,0.00,,,0.04,meteohub,2013-05-06 21:08:00,
2013-05-06 16:13:00,64.4,53.2,29.36,NNE,22,8.0,11.0,67,0.00,,,0.04,meteohub,2013-05-06 21:13:00,
2013-05-06 16:18:00,64.2,52.2,29.36,NNW,338,9.0,11.0,65,0.00,,,0.04,meteohub,2013-05-06 21:18:00,
2013-05-06 16:23:00,64.4,52.0,29.36,NE,45,4.0,13.0,64,0.00,,,0.04,meteohub,2013-05-06 21:23:00,
2013-05-06 16:28:00,64.2,51.8,29.36,North,0,8.0,13.0,64,0.00,,,0.04,meteohub,2013-05-06 21:28:00,
2013-05-06 16:34:00,64.2,51.8,29.36,NNW,338,4.0,13.0,64,0.00,,,0.04,meteohub,2013-05-06 21:34:00,
2013-05-06 16:39:00,64.2,52.2,29.36,NNW,338,7.0,13.0,65,0.00,,,0.04,meteohub,2013-05-06 21:39:00,
2013-05-06 16:44:00,64.6,52.5,29.36,NE,45,8.0,13.0,65,0.00,,,0.04,meteohub,2013-05-06 21:44:00,
2013-05-06 16:49:00,64.8,52.7,29.36,NNE,22,3.0,10.0,65,0.00,,,0.04,meteohub,2013-05-06 21:49:00,
2013-05-06 16:54:00,65.5,53.4,29.36,North,0,6.0,9.0,65,0.00,,,0.04,meteohub,2013-05-06 21:54:00,
2013-05-06 16:59:00,65.5,52.5,29.36,North,0,8.0,8.0,63,0.00,,,0.04,meteohub,2013-05-06 21:59:00,
2013-05-06 17:04:00,65.3,52.0,29.36,NNE,22,6.0,6.0,62,0.00,,,0.04,meteohub,2013-05-06 22:04:00,
2013-05-06 17:09:00,65.5,53.1,29.36,North,0,6.0,10.0,64,0.00,,,0.04,meteohub,2013-05-06 22:09:00,
2013-05-06 17:14:00,65.5,52.5,29.36,NNE,22,4.0,10.0,63,0.00,,,0.04,meteohub,2013-05-06 22:14:00,
2013-05-06 17:19:00,65.5,52.5,29.36,North,0,6.0,9.0,63,0.00,,,0.04,meteohub,2013-05-06 22:19:00,
2013-05-06 17:24:00,65.8,52.9,29.36,North,0,6.0,9.0,63,0.00,,,0.04,meteohub,2013-05-06 22:24:00,
2013-05-06 17:29:00,66.0,53.1,29.36,NNW,338,5.0,9.0,63,0.00,,,0.04,meteohub,2013-05-06 22:29:00,
2013-05-06 17:34:00,66.2,52.9,29.36,NNE,22,4.0,7.0,62,0.00,,,0.04,meteohub,2013-05-06 22:34:00,
2013-05-06 17:39:00,66.2,52.9,29.36,North,0,6.0,6.0,62,0.00,,,0.04,meteohub,2013-05-06 22:39:00,
2013-05-06 17:45:00,66.4,53.1,29.36,North,0,6.0,8.0,62,0.00,,,0.04,meteohub,2013-05-06 22:45:00,
2013-05-06 17:50:00,66.4,53.1,29.36,NNW,338,6.0,9.0,62,0.00,,,0.04,meteohub,2013-05-06 22:50:00,
2013-05-06 17:55:00,66.4,53.1,29.36,North,0,8.0,8.0,62,0.00,,,0.04,meteohub,2013-05-06 22:55:00,
2013-05-06 18:00:00,66.2,52.9,29.36,NNE,22,6.0,9.0,62,0.00,,,0.04,meteohub,2013-05-06 23:00:00,
2013-05-06 18:05:00,66.2,52.9,29.36,North,0,4.0,9.0,62,0.00,,,0.04,meteohub,2013-05-06 23:05:00,
2013-05-06 18:10:00,66.0,52.7,29.36,NNE,22,4.0,9.0,62,0.00,,,0.04,meteohub,2013-05-06 23:10:00,
2013-05-06 18:15:00,66.0,53.1,29.36,North,0,3.0,8.0,63,0.00,,,0.04,meteohub,2013-05-06 23:15:00,
2013-05-06 18:20:00,65.8,52.5,29.36,NNE,22,4.0,10.0,62,0.00,,,0.04,meteohub,2013-05-06 23:20:00,
2013-05-06 18:25:00,65.7,52.7,29.36,NNE,22,6.0,10.0,63,0.00,,,0.04,meteohub,2013-05-06 23:25:00,
2013-05-06 18:30:00,65.5,53.1,29.36,NE,45,6.0,10.0,64,0.00,,,0.04,meteohub,2013-05-06 23:30:00,
2013-05-06 18:35:00,65.5,53.1,29.36,North,0,7.0,9.0,64,0.00,,,0.04,meteohub,2013-05-06 23:35:00,
2013-05-06 18:40:00,65.1,53.1,29.39,NE,45,6.0,10.0,65,0.00,,,0.04,meteohub,2013-05-06 23:40:00,
2013-05-06 18:45:00,65.1,53.1,29.39,NNE,22,5.0,10.0,65,0.00,,,0.04,meteohub,2013-05-06 23:45:00,
2013-05-06 18:50:00,64.9,52.9,29.39,NNE,22,6.0,10.0,65,0.00,,,0.04,meteohub,2013-05-06 23:50:00,
2013-05-06 18:56:00,64.9,52.9,29.39,NE,45,7.0,9.0,65,0.00,,,0.04,meteohub,2013-05-06 23:56:00,
2013-05-06 19:01:00,64.6,53.1,29.39,NE,45,6.0,9.0,66,0.00,,,0.04,meteohub,2013-05-07 00:01:00,
2013-05-06 19:06:00,64.4,53.2,29.39,NNE,22,4.0,9.0,67,0.00,,,0.00,meteohub,2013-05-07 00:06:00,
2013-05-06 19:11:00,64.4,53.2,29.39,North,0,6.0,8.0,67,0.00,,,0.00,meteohub,2013-05-07 00:11:00,
2013-05-06 19:16:00,64.2,53.4,29.39,NNE,22,2.0,7.0,68,0.00,,,0.00,meteohub,2013-05-07 00:16:00,
2013-05-06 19:21:00,64.0,53.2,29.39,NNE,22,5.0,6.0,68,0.00,,,0.00,meteohub,2013-05-07 00:21:00,
2013-05-06 19:26:00,64.0,53.6,29.39,NNE,22,4.0,6.0,69,0.00,,,0.00,meteohub,2013-05-07 00:26:00,
2013-05-06 19:31:00,63.9,53.4,29.39,NE,45,4.0,5.0,69,0.00,,,0.00,meteohub,2013-05-07 00:31:00,
2013-05-06 19:36:00,63.7,53.8,29.39,NE,45,6.0,6.0,70,0.00,,,0.00,meteohub,2013-05-07 00:36:00,
2013-05-06 19:41:00,63.5,53.6,29.39,NNW,338,3.0,6.0,70,0.00,,,0.00,meteohub,2013-05-07 00:41:00,
2013-05-06 19:46:00,63.5,53.6,29.39,NNE,22,4.0,6.0,70,0.00,,,0.00,meteohub,2013-05-07 00:46:00,
2013-05-06 19:51:00,63.3,53.8,29.39,NNE,22,4.0,6.0,71,0.00,,,0.00,meteohub,2013-05-07 00:51:00,
2013-05-06 19:57:00,63.1,53.6,29.39,NE,45,2.0,4.0,71,0.00,,,0.00,meteohub,2013-05-07 00:57:00,
2013-05-06 20:02:00,63.1,53.6,29.39,North,0,3.0,4.0,71,0.00,,,0.00,meteohub,2013-05-07 01:02:00,
2013-05-06 20:07:00,63.1,54.0,29.39,NNE,22,3.0,4.0,72,0.00,,,0.00,meteohub,2013-05-07 01:07:00,
2013-05-06 20:12:00,63.0,53.8,29.39,North,0,3.0,4.0,72,0.00,,,0.00,meteohub,2013-05-07 01:12:00,
2013-05-06 20:17:00,63.0,53.8,29.39,NNE,22,3.0,5.0,72,0.00,,,0.00,meteohub,2013-05-07 01:17:00,
2013-05-06 20:22:00,63.0,53.8,29.39,NNW,338,2.0,5.0,72,0.00,,,0.00,meteohub,2013-05-07 01:22:00,
2013-05-06 20:27:00,63.0,54.1,29.39,North,0,2.0,5.0,73,0.00,,,0.00,meteohub,2013-05-07 01:27:00,
2013-05-06 20:32:00,62.8,54.0,29.39,NNE,22,2.0,5.0,73,0.00,,,0.00,meteohub,2013-05-07 01:32:00,
2013-05-06 20:37:00,62.8,54.0,29.39,North,0,4.0,5.0,73,0.00,,,0.00,meteohub,2013-05-07 01:37:00,
2013-05-06 20:42:00,62.8,54.0,29.39,NNE,22,3.0,4.0,73,0.00,,,0.00,meteohub,2013-05-07 01:42:00,
2013-05-06 20:47:00,62.8,54.0,29.39,NNE,22,4.0,4.0,73,0.00,,,0.00,meteohub,2013-05-07 01:47:00,
2013-05-06 20:52:00,62.8,54.0,29.39,NNE,22,4.0,4.0,73,0.00,,,0.00,meteohub,2013-05-07 01:52:00,
2013-05-06 20:57:00,62.8,54.0,29.39,NNE,22,4.0,5.0,73,0.00,,,0.00,meteohub,2013-05-07 01:57:00,
2013-05-06 21:02:00,62.6,53.8,29.39,North,0,3.0,5.0,73,0.00,,,0.00,meteohub,2013-05-07 02:02:00,
2013-05-06 21:07:00,62.6,53.8,29.39,North,0,3.0,6.0,73,0.00,,,0.00,meteohub,2013-05-07 02:07:00,
2013-05-06 21:12:00,62.6,53.8,29.39,North,0,2.0,6.0,73,0.00,,,0.00,meteohub,2013-05-07 02:12:00,
2013-05-06 21:17:00,62.4,53.6,29.39,North,0,4.0,4.0,73,0.00,,,0.00,meteohub,2013-05-07 02:17:00,
2013-05-06 21:22:00,62.2,53.4,29.39,NNW,338,3.0,4.0,73,0.00,,,0.00,meteohub,2013-05-07 02:22:00,
2013-05-06 21:27:00,62.2,53.8,29.39,NNE,22,6.0,6.0,74,0.00,,,0.00,meteohub,2013-05-07 02:27:00,
2013-05-06 21:32:00,62.2,53.8,29.39,North,0,4.0,6.0,74,0.00,,,0.00,meteohub,2013-05-07 02:32:00,
2013-05-06 21:37:00,62.2,53.8,29.39,North,0,6.0,8.0,74,0.00,,,0.00,meteohub,2013-05-07 02:37:00,
2013-05-06 21:42:00,62.4,53.6,29.39,NE,45,4.0,9.0,73,0.00,,,0.00,meteohub,2013-05-07 02:42:00,
2013-05-06 21:47:00,62.4,53.6,29.39,NNE,22,4.0,9.0,73,0.00,,,0.00,meteohub,2013-05-07 02:47:00,
2013-05-06 21:52:00,62.6,53.8,29.39,NNE,22,6.0,9.0,73,0.00,,,0.00,meteohub,2013-05-07 02:52:00,
2013-05-06 21:57:00,62.4,53.2,29.39,NNE,22,11.0,11.0,72,0.00,,,0.00,meteohub,2013-05-07 02:57:00,
2013-05-06 22:02:00,62.6,53.1,29.39,North,0,6.0,11.0,71,0.00,,,0.00,meteohub,2013-05-07 03:02:00,
2013-05-06 22:07:00,62.6,53.1,29.39,NNE,22,6.0,11.0,71,0.00,,,0.00,meteohub,2013-05-07 03:07:00,
2013-05-06 22:12:00,62.4,52.9,29.39,NNE,22,6.0,11.0,71,0.00,,,0.00,meteohub,2013-05-07 03:12:00,
2013-05-06 22:17:00,62.4,52.9,29.39,NE,45,4.0,8.0,71,0.00,,,0.00,meteohub,2013-05-07 03:17:00,
2013-05-06 22:22:00,62.2,52.7,29.39,NE,45,6.0,7.0,71,0.00,,,0.00,meteohub,2013-05-07 03:22:00,
2013-05-06 22:27:00,62.2,52.7,29.39,North,0,4.0,9.0,71,0.00,,,0.00,meteohub,2013-05-07 03:27:00,
2013-05-06 22:32:00,62.2,52.7,29.39,NE,45,4.0,9.0,71,0.00,,,0.00,meteohub,2013-05-07 03:32:00,
2013-05-06 22:37:00,62.2,52.7,29.39,NNE,22,6.0,9.0,71,0.00,,,0.00,meteohub,2013-05-07 03:37:00,
2013-05-06 22:42:00,62.1,52.9,29.39,NNE,22,3.0,8.0,72,0.00,,,0.00,meteohub,2013-05-07 03:42:00,
2013-05-06 22:47:00,61.9,52.7,29.39,North,0,3.0,6.0,72,0.00,,,0.00,meteohub,2013-05-07 03:47:00,
2013-05-06 22:52:00,61.9,52.7,29.39,North,0,2.0,6.0,72,0.00,,,0.00,meteohub,2013-05-07 03:52:00,
2013-05-06 22:57:00,61.7,52.9,29.39,NNE,22,2.0,6.0,73,0.00,,,0.00,meteohub,2013-05-07 03:57:00,
2013-05-06 23:01:00,61.5,52.9,29.39,NNE,22,2.0,6.0,73,0.00,,,0.00,meteohub,2013-05-07 04:01:00,
2013-05-06 23:02:00,61.5,52.9,29.39,NE,45,4.0,6.0,73,0.00,,,0.00,meteohub,2013-05-07 04:02:00,
2013-05-06 23:04:00,61.5,52.9,29.39,North,0,3.0,6.0,73,0.00,,,0.00,meteohub,2013-05-07 04:04:00,
2013-05-06 23:09:00,61.3,52.7,29.39,NNE,22,3.0,5.0,73,0.00,,,0.00,meteohub,2013-05-07 04:09:00,
2013-05-06 23:14:00,61.2,52.9,29.39,NNE,22,3.0,5.0,74,0.00,,,0.00,meteohub,2013-05-07 04:14:00,
2013-05-06 23:19:00,61.0,52.7,29.39,ENE,68,3.0,5.0,74,0.00,,,0.00,meteohub,2013-05-07 04:19:00,
2013-05-06 23:24:00,60.8,52.9,29.39,NNE,22,3.0,5.0,75,0.00,,,0.00,meteohub,2013-05-07 04:24:00,
2013-05-06 23:29:00,60.6,52.7,29.39,NNE,22,3.0,4.0,75,0.00,,,0.00,meteohub,2013-05-07 04:29:00,
2013-05-06 23:34:00,60.4,52.9,29.42,North,0,4.0,4.0,76,0.00,,,0.00,meteohub,2013-05-07 04:34:00,
2013-05-06 23:39:00,60.3,52.7,29.42,NE,45,2.0,4.0,76,0.00,,,0.00,meteohub,2013-05-07 04:39:00,
2013-05-06 23:44:00,60.1,52.9,29.42,NNE,22,2.0,4.0,77,0.00,,,0.00,meteohub,2013-05-07 04:44:00,
2013-05-06 23:49:00,59.9,52.7,29.42,North,0,3.0,4.0,77,0.00,,,0.00,meteohub,2013-05-07 04:49:00,
2013-05-06 23:54:00,59.9,53.1,29.42,North,0,2.0,4.0,78,0.00,,,0.00,meteohub,2013-05-07 04:54:00,